Regional Weather Roundup
Issued by NWS

Home | Current Version | Previous Version | Graphics & Text | Print | Product List | Glossary On
Versions: 1 2 3 4 5 6 7 8 9 10 11 12 13 14 15 16 17 18 19 20 21 22 23 24 25 26 27 28 29 30 31 32 33 34 35 36 37 38 39 40 41 42 43 44 45 46 47 48 49 50
000
ASUS43 KLOT 242303
RWRIL

ILLINOIS REGIONAL WEATHER ROUNDUP
NATIONAL WEATHER SERVICE CHICAGO/ROMEOVILLE IL
500 PM CST FRI FEB 24 2017

NOTE: "FAIR" INDICATES FEW OR NO CLOUDS BELOW 12,000 FEET WITH NO
SIGNIFICANT WEATHER AND/OR OBSTRUCTIONS TO VISIBILITY.

* THESE STATIONS ARE NOT UNDER NWS QUALITY CONTROL. THEY ALSO MAY NOT
  REPORT WEATHER SUCH AS PRECIPITATION OR FOG.

ILZ001-002-007-009-015-016-024-250000-
NORTHWEST ILLINOIS

CITY           SKY/WX    TMP DP  RH WIND       PRES   REMARKS
MOLINE         LGT RAIN  38  34  85 W10       29.59R FOG     WCI  31
STERLING*      MIX PCPN  37  36  96 NW8       29.58R FOG     WCI  31
$$

ILZ003-004-008-010-011-017-018-250000-
NORTH CENTRAL ILLINOIS

CITY           SKY/WX    TMP DP  RH WIND       PRES   REMARKS
ROCKFORD       DRIZZLE   36  34  92 NW6       29.57R FOG     WCI  31
FREEPORT*      CLOUDY    31  30  96 N9        29.59R FOG     WCI  23
ROCHELLE*      CLOUDY    36  36  99 NW3       29.56R FOG
DE KALB*       CLOUDY    37  36  96 NW8       29.54R FOG     WCI  30
PERU*          CLOUDY    40  37  91 W12       29.57R FOG
$$

ILZ005-006-012>014-019>023-250000-
NORTHEAST ILLINOIS

CITY           SKY/WX    TMP DP  RH WIND       PRES   REMARKS
CHICAGO-OHARE  CLOUDY    40  37  89 NW9       29.50R FOG
CHICAGO-MIDWAY CLOUDY    41  38  89 NW7       29.50R FOG
AURORA         CLOUDY    39  37  92 NW10      29.53R FOG     WCI  32
LANSING*       CLOUDY    46  45  95 W5        29.51R
JOLIET*        CLOUDY    45  40  84 W12G23    29.54R
WAUKEGAN       CLOUDY    36  34  92 VRB6      29.50R FOG     WCI  31
DUPAGE AIRPORT CLOUDY    39  37  92 NW12      29.51R FOG     WCI  32
KANKAKEE*      CLOUDY    47  42  84 W22G30    29.54R
WHEELING       CLOUDY    37  36  96 NW7       29.52R FOG     WCI  32
MORRIS*        CLOUDY    43  40  88 W16       29.53R FOG
ROMEOVILLE*    CLOUDY    43  43 100 W18G25    29.53R
NORTHERLY ISL    N/A     39  37  92 W7          N/A  WCI  34
$$

LMZ740>746-250000-
SOUTHERN LAKE MICHIGAN

STATION/POSITION SKY/WX   TEMP    WIND        PRES    VSBY  WAVE
                          AIR SEA DIR/SP/G                  HT/PER
                          (F)     (DEG/KT/KT) (MB)    (MI)  (FT/S)
HARRISON CRIB              37     330/ 18/ 19   N/A
BURNHAM HARBOR             39     300/  7/ 11   N/A
CALUMET HARBOR             40     270/  3/  9  998.4R
BURNS HARBOR               36     300/  9/ 14  999.7R
MICHIGAN CITY              36     230/ 13/ 13   N/A
$$

ILZ025>027-034>036-040-047-049-050-058-095>099-250000-
WEST-CENTRAL ILLINOIS

CITY           SKY/WX    TMP DP  RH WIND       PRES   REMARKS
QUINCY         LGT RAIN  42  38  85 W16       29.64R
GALESBURG*     CLOUDY    38  36  92 W13       29.60R WCI  30
MACOMB*        CLOUDY    41  37  87 W16       29.63R
JACKSONVILLE*  CLOUDY    46  36  69 SW16G24   29.63R
PITTSFIELD*    CLOUDY    46  35  64 W16       29.65R
$$

ILZ028>032-037-038-041>044-048-051>054-059>061-250000-
CENTRAL ILLINOIS

CITY           SKY/WX    TMP DP  RH WIND       PRES   REMARKS
PONTIAC        CLOUDY    45  40  84 W23G29    29.58R
BLOOMINGTON    CLOUDY    44  37  76 W17G29    29.59R
DECATUR        PTCLDY    50  39  66 W16G26    29.57F
PEORIA         CLOUDY    44  36  73 W10       29.59S
LACON*         CLOUDY    41  37  85 W12G17    29.58R
LINCOLN*       CLOUDY    47  39  75 W9G16     29.61R
SPRINGFIELD    CLOUDY    48  39  71 W17G29    29.62R
TAYLORVILLE    CLEAR     49  37  63 W20G32    29.61R
$$

ILZ033-039-045-046-055>057-062-063-250000-
EAST-CENTRAL ILLINOIS

CITY           SKY/WX    TMP DP  RH WIND       PRES   REMARKS
CHAMPAIGN      MOCLDY    52  39  61 W29G35    29.54S
RANTOUL*       MOCLDY    51  43  73 W22G28    29.54R
MATTOON        LGT RAIN  51  45  79 W18G26    29.57R
$$

ILZ079-100>102-250000-
SOUTHWEST ILLINOIS

CITY           SKY/WX    TMP DP  RH WIND       PRES   REMARKS
ALTON          PTCLDY    52  37  58 W20G25    29.64R
CAHOKIA*       CLEAR     56  36  47 W16       29.64R
SPARTA*        CLEAR     57  37  47 W18       29.64R
$$

ILZ064>066-069>071-074>076-080>082-084>086-088>090-092>094-250000-
SOUTH-CENTRAL ILLINOIS

CITY           SKY/WX    TMP DP  RH WIND       PRES   REMARKS
CARBONDALE     CLOUDY    57  55  93 NW5       29.62R
CAIRO*         LGT RAIN  61  58  91 SW9       29.63S
EFFINGHAM*     CLOUDY    52  49  92 W12       29.60S
MARION         LGT RAIN  57  54  88 CALM      29.64R
MT. VERNON     CLOUDY    54  49  83 CALM      29.63R
CENTRALIA*     CLOUDY    56  45  68 W14       29.62R
SALEM*         CLOUDY    55  44  67 W15G21    29.62R
METROPOLIS*    CLOUDY    63  56  77 CALM      29.64R
$$

ILZ067-068-072-073-078-083-087-091-250000-
SOUTHEAST ILLINOIS

CITY           SKY/WX    TMP DP  RH WIND       PRES   REMARKS
LAWRENCEVILLE  CLOUDY    60  52  74 W16       29.56R
FLORA*         LGT RAIN  55  48  78 W14G20    29.61R
FAIRFIELD*     LGT RAIN  54  52  92 W6        29.62R
HARRISBURG*    CLOUDY    63  54  73 W14G25    29.62R
ROBINSON*      LGT RAIN  55  52  88 W18       29.58R
CARMI*         MOCLDY    64  57  78 SW18      29.59R
$$

ABBREVIATIONS USED IN REMARKS
   TC - TEMPERATURE IN CELSIUS
  WCI - WIND CHILL INDEX
   HX - HEAT INDEX
  VSB - VISIBILITY
$$





USA.gov is the U.S. government's official web portal to all federal, state and local government web resources and services.